Regional Weather Roundup
Issued by NWS Kansas City/Pleasant Hill, MO

Home | Current Version | Previous Version | Graphics & Text | Print | Product List | Glossary Off
Versions: 1 2 3 4 5 6 7 8 9 10 11 12 13 14 15 16 17 18 19 20 21 22 23 24 25 26 27 28 29 30 31 32 33 34 35 36 37 38 39 40 41 42 43 44 45 46 47 48 49 50

008
ASUS43 KEAX 292310
RWREAX

WEATHER ROUNDUP FOR EASTERN KANSAS AND NORTHWEST MISSOURI
NATIONAL WEATHER SERVICE KANSAS CITY/PLEASANT HILL MO
600 PM CDT WED MAR 29 2017

KSZ040-057-103>105-MOZ028-029-037-043-300000-
...KANSAS CITY METROPOLITAN AREA...

CITY           SKY/WX    TMP DP  RH WIND       PRES   REMARKS
K.C. INTL      TSTM      54  53  97 NE10G30   29.70R
K.C. DOWNTOWN  TSTM      57  54  89 W8G18     29.68R VSB 1/2
LEES SUMMIT    PTSUNNY   60  58  92 E17G23    29.64F
OLATHE - IXD   CLOUDY    59  55  87 CALM      29.64S
OLATHE - OJC   MOSUNNY   60  58  92 N6        29.64R
LAWRENCE       PTSUNNY   59  58  96 NE8       29.64F

$$

MOZ001>008-011>017-020>025-030>033-038>040-044>046-053-054-300000-
...NORTHERN AND CENTRAL MISSOURI...

CITY           SKY/WX    TMP DP  RH WIND       PRES   REMARKS
ST. JOSEPH     TSTM      52  51  97 E13G22    29.69F FOG
MOSBY          CLOUDY    55  52  88 E13G18    29.67F
WARRENSBURG    MOSUNNY   64  55  72 E12       29.65F
WHITEMAN AFB   PTSUNNY   65  65  99 E12       29.65F
CLINTON        CLOUDY    72  61  68 SE9       29.65F
SEDALIA        CLOUDY    64  57  78 E13       29.69F
WARSAW         NOT AVBL
CHILLICOTHE      N/A     54  51  90 VRB6      29.76F
KIRKSVILLE     LGT RAIN  51  50  96 E16       29.82F FOG

$$

MOZ041-047>049-056>058-063>065-088>090-097-300000-
...EASTERN AND SOUTHERN MISSOURI...

CITY           SKY/WX    TMP DP  RH WIND       PRES   REMARKS
ST. LOUIS INTL CLOUDY    66  54  65 E14       29.84R
SPIRIT OF STL  CLOUDY    66  57  72 E9        29.81S
COLUMBIA       LGT RAIN  62  57  83 E10       29.74F
JEFFERSON CITY CLOUDY    66  56  70 E13       29.73S
ROLLA          CLOUDY    68  58  70 SE13      29.73F
OSAGE BEACH    LGT RAIN  69  61  75 SE10      29.73R
SPRINGFIELD    CLOUDY    71  57  61 S12       29.67F
BRANSON        CLOUDY    72  59  64 S9        29.71F
JOPLIN         PTSUNNY   72  55  55 S16       29.63F
WEST PLAINS    CLOUDY    73  61  65 SE15G24   29.75F

$$

IAZ060-094-KSZ022-034>040-054-083-096-NEZ052-066-093-300000-
...KANSAS...SOUTHEAST NEBRASKA AND IOWA...

CITY           SKY/WX    TMP DP  RH WIND       PRES   REMARKS
TOPEKA         CLOUDY    59  56  89 NE14      29.62F
MANHATTAN      LGT RAIN  50  49  96 NE15G22   29.64S FOG
EMPORIA        MOSUNNY   64  54  69 S15       29.58F
CHANUTE        LGT RAIN  64  52  64 S14G23    29.62F
WICHITA        CLOUDY    55  49  80 S16       29.57F
OMAHA          LGT RAIN  44  39  82 NE23G30   29.86F FOG
LINCOLN        LGT RAIN  43  42  97 NE18      29.82F FOG     WCI  35
FALLS CITY     CLOUDY    48  47  96 N9        29.72S
LAMONI         CLOUDY    49  48  97 E14G22    29.79F FOG
DES MOINES     LGT RAIN  45  43  93 E13G24    29.89S FOG

$$





USA.gov is the U.S. government's official web portal to all federal, state and local government web resources and services.